| time (UTC) | temp C | wind direction | speed KPH | gust KPH | rain 1hr cm | rain 24hr cm | rain mn cm | humidity % | barometer mb |
| 20260505124555 | 11 | 0 | 0.0 | 0.0 | 0.00 | 0.00 | 0.00 | 63 | 1007.9 |
| 20260505123059 | 11 | 0 | 0.0 | 0.0 | 0.00 | 0.00 | 0.00 | 62 | 1007.8 |
| 20260505121613 | 11 | 0 | 0.0 | 3.2 | 0.00 | 0.00 | 0.00 | 62 | 1007.8 |
| 20260505120058 | 11 | 0 | 0.0 | 0.0 | 0.00 | 0.00 | 0.00 | 61 | 1007.7 |
| 20260505114556 | 11 | 0 | 0.0 | 0.0 | 0.00 | 0.00 | 0.00 | 60 | 1007.5 |
| 20260505113056 | 11 | 0 | 0.0 | 0.0 | 0.00 | 0.00 | 0.00 | 60 | 1007.5 |
| 20260505111557 | 11 | 0 | 0.0 | 0.0 | 0.00 | 0.00 | 0.00 | 59 | 1007.4 |
| 20260505101557 | 12 | 0 | 0.0 | 0.0 | 0.00 | 0.00 | 0.00 | 58 | 1007.7 |
| 20260505100100 | 12 | 0 | 0.0 | 0.0 | 0.00 | 0.00 | 0.00 | 58 | 1007.7 |
| 20260505094558 | 12 | 0 | 0.0 | 1.6 | 0.00 | 0.00 | 0.00 | 57 | 1007.7 |
| 20260505093101 | 12 | 0 | 0.0 | 3.2 | 0.00 | 0.00 | 0.00 | 57 | 1007.8 |
| 20260505091554 | 12 | 0 | 0.0 | 1.6 | 0.00 | 0.00 | 0.00 | 56 | 1007.8 |
| 20260505090104 | 12 | 0 | 0.0 | 0.0 | 0.00 | 0.00 | 0.00 | 56 | 1007.9 |
| 20260505084554 | 12 | 0 | 0.0 | 0.0 | 0.00 | 0.00 | 0.00 | 56 | 1007.9 |
| 20260505083102 | 13 | 0 | 0.0 | 1.6 | 0.00 | 0.00 | 0.00 | 55 | 1007.9 |
| 20260505081557 | 13 | 0 | 0.0 | 4.8 | 0.00 | 0.00 | 0.00 | 55 | 1008.1 |
| 20260505080055 | 13 | 0 | 0.0 | 11.3 | 0.00 | 0.00 | 0.00 | 55 | 1008.2 |
| 20260505074552 | 13 | 0 | 0.0 | 11.3 | 0.00 | 0.00 | 0.00 | 54 | 1008.3 |
| 20260505073059 | 14 | 0 | 3.2 | 9.7 | 0.00 | 0.00 | 0.00 | 55 | 1008.6 |
| 20260505071553 | 14 | 171 | 0.0 | 8.0 | 0.00 | 0.00 | 0.00 | 55 | 1008.7 |
| 20260505070052 | 14 | 0 | 1.6 | 6.4 | 0.00 | 0.00 | 0.00 | 54 | 1008.6 |
| 20260505064554 | 14 | 204 | 0.0 | 9.7 | 0.00 | 0.00 | 0.00 | 53 | 1008.8 |
| 20260505063053 | 15 | 0 | 0.0 | 4.8 | 0.00 | 0.00 | 0.00 | 52 | 1008.6 |
| 20260505061554 | 15 | 202 | 4.8 | 16.1 | 0.00 | 0.00 | 0.00 | 51 | 1008.2 |
| 20260505060059 | 15 | 0 | 1.6 | 4.8 | 0.00 | 0.00 | 0.00 | 48 | 1007.9 |
| 20260505054559 | 15 | 0 | 0.0 | 3.2 | 0.00 | 0.00 | 0.00 | 47 | 1007.6 |
| 20260505053105 | 14 | 194 | 0.0 | 4.8 | 0.00 | 0.00 | 0.00 | 47 | 1007.5 |
| 20260505051553 | 15 | 0 | 0.0 | 0.0 | 0.00 | 0.00 | 0.00 | 46 | 1007.3 |
| 20260505041551 | 15 | 0 | 0.0 | 0.0 | 0.00 | 0.00 | 0.00 | 42 | 1006.6 |
| 20260505040053 | 15 | 0 | 0.0 | 0.0 | 0.00 | 0.00 | 0.00 | 41 | 1006.3 |
| 20260505034553 | 15 | 0 | 0.0 | 0.0 | 0.00 | 0.00 | 0.00 | 42 | 1006.0 |
| 20260505033110 | 16 | 0 | 0.0 | 0.0 | 0.00 | 0.00 | 0.00 | 40 | 1005.9 |
| 20260505031552 | 16 | 0 | 0.0 | 0.0 | 0.00 | 0.00 | 0.00 | 36 | 1005.7 |
| 20260505030058 | 17 | 0 | 0.0 | 0.0 | 0.00 | 0.00 | 0.00 | 33 | 1005.5 |
| 20260505024552 | 18 | 0 | 0.0 | 0.0 | 0.00 | 0.00 | 0.00 | 30 | 1005.3 |
| 20260505023101 | 20 | 0 | 0.0 | 0.0 | 0.00 | 0.00 | 0.00 | 28 | 1005.2 |
| 20260505021555 | 20 | 0 | 0.0 | 0.0 | 0.00 | 0.00 | 0.00 | 27 | 1005.2 |
| 20260505020056 | 21 | 0 | 0.0 | 0.0 | 0.00 | 0.00 | 0.00 | 26 | 1005.1 |
| 20260505014554 | 21 | 0 | 0.0 | 9.7 | 0.00 | 0.00 | 0.00 | 25 | 1004.9 |
| 20260505013051 | 22 | 144 | 1.6 | 9.7 | 0.00 | 0.00 | 0.00 | 24 | 1004.9 |
| 20260505011559 | 22 | 0 | 1.6 | 11.3 | 0.00 | 0.00 | 0.00 | 24 | 1005.1 |
| 20260505010058 | 22 | 197 | 3.2 | 11.3 | 0.00 | 0.00 | 0.00 | 23 | 1005.1 |
| 20260505004558 | 23 | 212 | 3.2 | 14.5 | 0.00 | 0.00 | 0.00 | 22 | 1005.1 |
| 20260505003051 | 23 | 215 | 4.8 | 14.5 | 0.00 | 0.00 | 0.00 | 21 | 1005.3 |
| 20260505001550 | 23 | 199 | 4.8 | 12.9 | 0.00 | 0.00 | 0.00 | 24 | 1005.5 |
| 20260505000101 | 23 | 209 | 6.4 | 14.5 | 0.00 | 0.00 | 0.00 | 22 | 1005.6 |
| 20260504234615 | 23 | 194 | 6.4 | 16.1 | 0.00 | 0.00 | 0.00 | 23 | 1005.6 |
| 20260504233052 | 23 | 250 | 6.4 | 16.1 | 0.00 | 0.00 | 0.00 | 24 | 1005.5 |
| 20260504231559 | 23 | 186 | 8.0 | 22.5 | 0.00 | 0.00 | 0.00 | 24 | 1005.4 |
| 20260504230052 | 23 | 235 | 11.3 | 20.9 | 0.00 | 0.00 | 0.00 | 24 | 1005.4 |
| 20260504224603 | 25 | 183 | 3.2 | 14.5 | 0.00 | 0.00 | 0.00 | 17 | 1005.4 |
| 20260504223056 | 25 | 239 | 6.4 | 12.9 | 0.00 | 0.00 | 0.00 | 18 | 1005.4 |
| 20260504221603 | 25 | 284 | 4.8 | 11.3 | 0.00 | 0.00 | 0.00 | 16 | 1005.5 |
| 20260504220057 | 25 | 202 | 3.2 | 16.1 | 0.00 | 0.00 | 0.00 | 16 | 1005.6 |
| 20260504214603 | 25 | 294 | 4.8 | 12.9 | 0.00 | 0.00 | 0.00 | 17 | 1005.9 |
| 20260504213109 | 25 | 234 | 1.6 | 8.0 | 0.00 | 0.00 | 0.00 | 20 | 1006.2 |
| 20260504211557 | 25 | 208 | 1.6 | 11.3 | 0.00 | 0.00 | 0.00 | 18 | 1006.3 |
| 20260504210105 | 25 | 198 | 4.8 | 16.1 | 0.00 | 0.00 | 0.00 | 17 | 1006.6 |
| 20260504204636 | 25 | 0 | 1.6 | 12.9 | 0.00 | 0.00 | 0.00 | 20 | 1006.7 |
| 20260504203059 | 24 | 248 | 4.8 | 11.3 | 0.00 | 0.00 | 0.00 | 20 | 1006.8 |
| 20260504201559 | 23 | 0 | 3.2 | 11.3 | 0.00 | 0.00 | 0.00 | 20 | 1007.1 |
| 20260504194558 | 23 | 0 | 3.2 | 17.7 | 0.00 | 0.00 | 0.00 | 19 | 1007.6 |
| 20260504193055 | 23 | 245 | 3.2 | 12.9 | 0.00 | 0.00 | 0.00 | 24 | 1007.7 |
| 20260504191554 | 23 | 0 | 4.8 | 12.9 | 0.00 | 0.00 | 0.00 | 24 | 1007.8 |
| 20260504190101 | 23 | 261 | 3.2 | 11.3 | 0.00 | 0.00 | 0.00 | 21 | 1008.1 |
| 20260504184604 | 23 | 271 | 3.2 | 12.9 | 0.00 | 0.00 | 0.00 | 22 | 1008.1 |
| 20260504183100 | 23 | 268 | 3.2 | 9.7 | 0.00 | 0.00 | 0.00 | 22 | 1008.5 |
| 20260504181557 | 23 | 0 | 0.0 | 6.4 | 0.00 | 0.00 | 0.00 | 24 | 1008.6 |
| 20260504180055 | 23 | 0 | 0.0 | 6.4 | 0.00 | 0.00 | 0.00 | 26 | 1008.8 |
| 20260504174554 | 23 | 0 | 0.0 | 9.7 | 0.00 | 0.00 | 0.00 | 24 | 1008.9 |
| 20260504173056 | 22 | 0 | 0.0 | 6.4 | 0.00 | 0.00 | 0.00 | 26 | 1008.9 |
| 20260504171557 | 22 | 192 | 0.0 | 6.4 | 0.00 | 0.00 | 0.00 | 25 | 1009.1 |